W1JCN Weather Reports


Display with metric or nautical units.
time (UTC)temp
F
wind
direction
speed
MPH
gust
MPH
rain 1hr
in
rain 24hr
in
rain mn
in
humidity
%
barometer
mb
20260507073852 41 306 0.0 5.0 0.00 0.15 0.00 94 1005.2
20260507072952 41 299 0.0 1.0 0.00 0.15 0.00 94 1004.9
20260507072052 41 299 0.0 2.0 0.00 0.15 0.00 94 1004.9
20260507071151 41 326 0.0 1.0 0.00 0.15 0.00 94 1004.9
20260507070252 41 307 0.0 3.0 0.00 0.15 0.00 94 1004.4
20260507064452 41 0 0.0 0.0 0.00 0.15 0.00 94 1004.4
20260507063551 41 295 0.0 2.0 0.00 0.15 0.00 94 1004.3
20260507062652 41 295 0.0 4.0 0.00 0.15 0.00 94 1004.4
20260507060851 41 0 0.0 0.0 0.00 0.15 0.00 94 1004.7
20260507055951 41 278 0.0 3.0 0.00 0.15 0.00 94 1004.8
20260507055052 42 273 0.0 1.0 0.00 0.15 0.00 94 1004.9
20260507054152 42 0 0.0 0.0 0.00 0.15 0.00 94 1005.0
20260507053251 42 0 0.0 0.0 0.00 0.15 0.00 95 1005.4
20260507052351 42 0 0.0 0.0 0.00 0.15 0.00 94 1005.3
20260507051451 42 273 0.0 1.0 0.00 0.15 0.00 94 1005.1
20260507050551 43 273 0.0 3.0 0.00 0.15 0.00 95 1005.0
20260507045651 43 273 0.0 3.0 0.00 0.15 0.00 95 1005.0
20260507044751 43 273 0.0 1.0 0.00 0.15 0.00 95 1004.8
20260507043851 43 0 0.0 0.0 0.00 0.15 0.00 95 1004.9
20260507042951 43 274 0.0 1.0 0.00 0.15 0.00 95 1004.8
20260507042051 44 273 0.0 2.0 0.00 0.15 0.00 95 1004.8
20260507041151 44 0 0.0 0.0 0.00 0.15 0.00 95 1005.0
20260507040251 44 274 0.0 2.0 0.00 0.15 0.00 95 1004.9
20260507035351 44 275 0.0 2.0 0.00 0.15 0.15 95 1004.9
20260507033551 44 306 1.0 5.0 0.01 0.15 0.15 95 1004.6
20260507032651 45 322 0.0 5.0 0.01 0.15 0.15 95 1004.8
20260507031751 45 285 0.0 2.0 0.01 0.15 0.15 95 1004.7
20260507030851 45 293 0.0 3.0 0.03 0.15 0.15 95 1004.9
20260507025951 45 310 0.0 3.0 0.03 0.15 0.15 95 1004.8
20260507025051 45 307 0.0 3.0 0.03 0.15 0.15 95 1005.0
20260507023251 45 287 0.0 4.0 0.04 0.14 0.14 95 1005.0
20260507022351 45 324 0.0 5.0 0.04 0.14 0.14 94 1005.1
20260507021451 46 323 1.0 8.0 0.04 0.13 0.13 94 1005.1
20260507020551 46 324 1.0 11.0 0.03 0.12 0.12 94 1005.1
20260507015651 46 333 1.0 9.0 0.03 0.12 0.12 94 1005.0
20260507014751 47 329 1.0 7.0 0.03 0.11 0.11 94 1005.0
20260507013851 47 313 1.0 5.0 0.02 0.10 0.10 94 1004.9
20260507012951 48 319 1.0 9.0 0.02 0.10 0.10 94 1004.8
20260507012051 48 318 1.0 8.0 0.02 0.10 0.10 94 1004.3
20260506222408 56 185 1.0 4.0 0.00 0.04 0.04 94 1002.0
20260506221507 56 216 1.0 8.0 0.00 0.04 0.04 94 1002.0
20260506220607 56 177 1.0 5.0 0.00 0.04 0.04 94 1002.0
20260506215707 56 183 0.0 5.0 0.00 0.04 0.04 94 1002.1
20260506214807 56 198 0.0 4.0 0.00 0.04 0.04 95 1002.0
20260506212107 56 168 1.0 7.0 0.00 0.04 0.04 94 1002.1
20260506211207 56 179 0.0 4.0 0.00 0.04 0.04 94 1002.1
20260506204507 57 183 0.0 4.0 0.00 0.04 0.04 94 1002.3
20260506203607 57 174 1.0 10.0 0.00 0.04 0.04 94 1002.2
20260506202707 57 182 1.0 7.0 0.00 0.04 0.04 94 1002.3
20260506201807 57 174 1.0 8.0 0.00 0.04 0.04 94 1002.3
20260506200907 57 193 1.0 5.0 0.00 0.04 0.04 94 1002.3
20260506200007 57 178 2.0 11.0 0.00 0.04 0.04 94 1002.3
20260506195107 57 174 1.0 7.0 0.01 0.04 0.04 94 1002.4
20260506194207 57 171 1.0 10.0 0.01 0.04 0.04 94 1002.4
20260506193307 57 169 1.0 11.0 0.02 0.04 0.04 94 1002.7
20260506192407 57 169 2.0 11.0 0.02 0.04 0.04 94 1002.7
20260506190607 57 165 0.0 5.0 0.03 0.04 0.04 94 1002.8
20260506185707 56 173 1.0 6.0 0.03 0.04 0.04 94 1003.1
20260506183907 57 131 0.0 3.0 0.03 0.03 0.03 94 1003.2
20260506183007 57 179 1.0 9.0 0.02 0.02 0.02 94 1003.2
20260506182107 57 188 1.0 4.0 0.02 0.02 0.02 94 1003.6
20260506181207 57 168 1.0 4.0 0.02 0.02 0.02 94 1003.7
20260506180307 57 179 1.0 4.0 0.01 0.01 0.01 94 1003.7
20260506175407 57 183 1.0 5.0 0.01 0.01 0.01 94 1004.3
20260506174507 57 178 1.0 5.0 0.00 0.00 0.00 93 1004.4
20260506173607 57 194 0.0 4.0 0.00 0.00 0.00 93 1004.6
20260506172707 57 224 1.0 4.0 0.00 0.00 0.00 93 1004.6
20260506171807 57 192 1.0 4.0 0.00 0.00 0.00 93 1004.6
20260506170907 57 179 1.0 5.0 0.00 0.00 0.00 92 1004.6
20260506170007 58 181 0.0 4.0 0.00 0.00 0.00 92 1004.6
20260506165107 58 172 1.0 6.0 0.00 0.00 0.00 91 1004.7
20260506164207 58 170 1.0 5.0 0.00 0.00 0.00 91 1004.7
20260506162407 59 205 1.0 5.0 0.00 0.00 0.00 90 1004.8
20260506161507 59 205 1.0 8.0 0.00 0.00 0.00 89 1004.8
20260506155707 59 170 1.0 6.0 0.00 0.00 0.00 88 1005.0
20260506154807 59 168 1.0 6.0 0.00 0.00 0.00 89 1005.2
20260506153907 59 164 1.0 6.0 0.00 0.00 0.00 88 1005.4
20260506153006 59 189 1.0 4.0 0.00 0.00 0.00 88 1005.4
20260506152107 59 177 2.0 6.0 0.00 0.00 0.00 87 1005.7
20260506150307 59 211 1.0 4.0 0.00 0.00 0.00 86 1005.9
20260506144507 59 182 1.0 7.0 0.00 0.00 0.00 85 1005.9
20260506141806 59 189 1.0 6.0 0.00 0.00 0.00 86 1005.8
20260506140907 59 174 1.0 6.0 0.00 0.00 0.00 88 1005.9
20260506140006 58 195 0.0 3.0 0.00 0.00 0.00 88 1005.8
20260506135107 57 189 1.0 6.0 0.00 0.00 0.00 89 1005.8
20260506134207 57 153 1.0 6.0 0.00 0.00 0.00 89 1005.8
20260506133306 57 185 1.0 5.0 0.00 0.00 0.00 89 1005.8
20260506131507 56 145 1.0 6.0 0.00 0.00 0.00 89 1006.1
20260506130606 56 178 1.0 4.0 0.00 0.00 0.00 89 1006.1
20260506125706 56 191 1.0 5.0 0.00 0.00 0.00 89 1006.4
20260506124806 56 198 1.0 5.0 0.00 0.00 0.00 89 1006.4
20260506123906 56 187 1.0 5.0 0.00 0.00 0.00 89 1006.4
20260506123006 56 185 1.0 4.0 0.00 0.00 0.00 90 1006.1
20260506122106 56 186 1.0 5.0 0.00 0.00 0.00 90 1006.0
20260506121206 55 181 1.0 9.0 0.00 0.00 0.00 90 1005.7
20260506120306 55 177 1.0 6.0 0.00 0.00 0.00 90 1006.0
20260506115406 55 189 1.0 5.0 0.00 0.00 0.00 91 1006.1
20260506114506 54 185 1.0 5.0 0.00 0.00 0.00 91 1006.2
20260506113606 54 183 1.0 10.0 0.00 0.00 0.00 91 1006.2
20260506111806 54 195 1.0 8.0 0.00 0.00 0.00 92 1006.2
20260506110906 53 193 1.0 5.0 0.00 0.00 0.00 93 1006.4
20260506110006 52 181 0.0 5.0 0.00 0.00 0.00 93 1006.2
20260506105106 52 175 0.0 4.0 0.00 0.00 0.00 93 1006.1
20260506104206 51 181 0.0 4.0 0.00 0.00 0.00 93 1006.2
20260506103306 51 178 0.0 2.0 0.00 0.00 0.00 93 1006.3
20260506102406 51 178 0.0 4.0 0.00 0.00 0.00 93 1006.2
20260506101506 50 178 0.0 2.0 0.00 0.00 0.00 93 1006.4
20260506100606 50 178 0.0 3.0 0.00 0.00 0.00 93 1006.2
20260506094806 50 171 0.0 1.0 0.00 0.00 0.00 91 1006.1
20260506092106 50 0 0.0 0.0 0.00 0.00 0.00 91 1006.0
20260506090306 50 0 0.0 0.0 0.00 0.00 0.00 90 1006.2
20260506085406 51 0 0.0 0.0 0.00 0.00 0.00 90 1006.2
20260506084506 51 0 0.0 0.0 0.00 0.00 0.00 90 1006.2
20260506083606 51 171 0.0 2.0 0.00 0.00 0.00 90 1006.4
20260506082706 51 171 0.0 1.0 0.00 0.00 0.00 90 1006.3
20260506081806 51 0 0.0 0.0 0.00 0.00 0.00 89 1006.5